Weather History for KGTF - October, 2011

Change the Weather History Date:

Saturday, October 22, 2011

  Actual Average Record
Temperature  
Mean Temperature 54 °F 43 °F  
Max Temperature 62 °F 55 °F 80 °F (1915)
Min Temperature 46 °F 31 °F 8 °F (1917)
Degree Days  
Heating Degree Days 11 22  
Month to date heating degree days 310 400  
Since 1 July heating degree days 486 807  
Cooling Degree Days 0 0  
Month to date cooling degree days 0 0  
Year to date cooling degree days 365 297  
Growing Degree Days 3 (Base 50)    
Moisture  
Dew Point 36 °F    
Average Humidity 51    
Maximum Humidity 65    
Minimum Humidity 36    
Precipitation  
Precipitation 0.00 in 0.02 in 0.84 in (1919)
Month to date precipitation 2.15 0.66  
Year to date precipitation 15.76 13.41  
Snow  
Snow 0.00 in 0.10 in 5.50 in (1919)
Month to date snowfall T 2.5  
Since 1 July snowfall T 4.0  
Since 1 September snowfall T 3.7  
Snow Depth 0.00 in    
Sea Level Pressure  
Sea Level Pressure 30.01 in    
Wind  
Wind Speed 19 mph (SW)    
Max Wind Speed 35 mph    
Max Gust Speed 44 mph    
Visibility 10 miles    
Events      
T = Trace of Precipitation, MM = Missing Value Source: NWS Daily Summary

Daily Weather History Graph

Daily Weather History Graph

Search for Another Location

Airport or City:

Trip Planner

Search our weather history database for the weather conditions in past years. The results will help you decide how hot, cold, wet, or windy it might be!

Date:

Astronomy

Oct. 22, 2011 Rise Set
Actual Time 7:54 AM MDT 6:25 PM MDT
Civil Twilight 7:22 AM MDT 6:56 PM MDT
Nautical Twilight 6:46 AM MDT 7:32 PM MDT
Astronomical Twilight 6:11 AM MDT 8:07 PM MDT
Moon 2:36 AM MDT (10/22) 4:01 PM MDT (10/22)
Length of Visible Light 11h 33m
Length of Day
10h 31m
Waning Crescent, 23% of the Moon is Illuminated
Oct 22
Waning Crescent
Oct 26
New
Nov 2
First Quarter
Nov 10
Full
Nov 18
Last Quarter

Hourly Weather History & Observations

Time (MDT) Temp. Windchill Dew Point Humidity Pressure Visibility Wind Dir Wind Speed Gust Speed Precip Events Conditions
12:53 AM 50.0 °F - 37.0 °F 61% 29.99 in 10.0 mi SSW 16.1 mph - N/A   Clear
1:53 AM 52.0 °F - 37.0 °F 57% 29.96 in 10.0 mi SSW 18.4 mph 27.6 mph N/A   Clear
2:53 AM 53.1 °F - 37.0 °F 55% 29.97 in 10.0 mi SW 19.6 mph 27.6 mph N/A   Clear
3:53 AM 51.1 °F - 37.0 °F 59% 30.00 in 10.0 mi SSW 15.0 mph - N/A   Clear
4:53 AM 51.1 °F - 37.0 °F 59% 30.03 in 10.0 mi SSW 11.5 mph - N/A   Scattered Clouds
5:53 AM 48.9 °F - 36.0 °F 61% 30.06 in 10.0 mi SW 13.8 mph - N/A   Clear
6:53 AM 46.0 °F 41.4 °F 34.0 °F 63% 30.10 in 10.0 mi SSW 9.2 mph - N/A   Clear
7:53 AM 46.9 °F - 36.0 °F 66% 30.09 in 10.0 mi SW 13.8 mph - N/A   Clear
8:53 AM 50.0 °F - 34.0 °F 54% 30.11 in 10.0 mi SW 13.8 mph - N/A   Clear
9:53 AM 54.0 °F - 34.0 °F 47% 30.09 in 10.0 mi WSW 21.9 mph 28.8 mph N/A   Clear
10:53 AM 55.0 °F - 35.1 °F 47% 30.07 in 10.0 mi SW 25.3 mph 35.7 mph N/A   Clear
11:53 AM 57.0 °F - 33.1 °F 40% 30.06 in 10.0 mi SW 23.0 mph 33.4 mph N/A   Clear
12:53 PM 60.1 °F - 34.0 °F 38% 30.04 in 10.0 mi SSW 25.3 mph 29.9 mph N/A   Clear
1:53 PM 60.1 °F - 34.0 °F 38% 29.98 in 10.0 mi SW 25.3 mph 39.1 mph N/A   Mostly Cloudy
2:53 PM 60.1 °F - 34.0 °F 38% 29.93 in 10.0 mi WSW 35.7 mph 43.7 mph N/A   Clear
3:53 PM 59.0 °F - 35.1 °F 41% 29.94 in 10.0 mi SW 23.0 mph 32.2 mph N/A   Clear
4:53 PM 57.9 °F - 35.1 °F 42% 29.91 in 10.0 mi WSW 20.7 mph - N/A   Clear
5:53 PM 57.9 °F - 36.0 °F 44% 29.93 in 10.0 mi WSW 23.0 mph 31.1 mph N/A   Mostly Cloudy
6:53 PM 54.0 °F - 37.0 °F 53% 29.95 in 10.0 mi WSW 21.9 mph 29.9 mph N/A   Clear
7:53 PM 52.0 °F - 37.0 °F 57% 29.99 in 10.0 mi West 13.8 mph - N/A   Partly Cloudy
8:53 PM 51.1 °F - 37.0 °F 59% 29.99 in 10.0 mi WSW 17.3 mph 25.3 mph N/A   Clear
9:53 PM 48.9 °F - 36.0 °F 61% 30.01 in 10.0 mi SW 11.5 mph - N/A   Clear
10:53 PM 46.9 °F - 35.1 °F 63% 30.00 in 10.0 mi SW 11.5 mph - N/A   Clear
11:53 PM 50.0 °F - 37.0 °F 61% 29.97 in 10.0 mi SW 15.0 mph - N/A   Clear